Simultaneous Nadir Overpasses (SNOs) Predictions

Prediction of SNOs between METOP-A and METOP-B Satellite Orbit:

Table of predicted SNOs for the next 14.0 days since TLE Epoch: 11/29/2014
Index Date (METOP-A) Time (METOP-A) Lat,Lon (METOP-A) SZA (METOP-A ) Date (METOP-B) Time (METOP-B) Lat,Lon (METOP-B) SZA (METOP-B ) Distance(km) Time Diff (sec)
1 11/29/2014 03:17:28 65.18, 112.52 87.28 11/29/2014 03:17:28 65.18, 112.52 87.28 0.00 0
2 11/29/2014 04:00:51 -80.99, 8.50 71.64 11/29/2014 04:00:51 -80.99, 8.50 71.64 0.00 0
3 11/29/2014 04:56:11 73.59, 99.77 94.98 11/29/2014 04:56:11 73.59, 99.77 94.98 0.00 0
4 11/29/2014 05:40:28 -77.80, 12.75 66.76 11/29/2014 05:40:28 -77.80, 12.75 66.76 0.00 0
5 11/29/2014 06:24:22 56.32,-146.64 130.81 11/29/2014 06:24:22 56.32,-146.64 130.81 0.00 0
6 11/29/2014 07:13:18 -50.47, 23.70 45.43 11/29/2014 07:13:18 -50.47, 23.70 45.43 0.00 0
7 11/29/2014 08:15:12 81.30, 103.04 105.69 11/29/2014 08:15:12 81.30, 103.04 105.69 0.00 0
8 11/29/2014 09:02:54 -77.07, -34.64 65.95 11/29/2014 09:02:54 -77.07, -34.64 65.95 0.00 0
9 11/29/2014 10:08:16 46.91, -0.03 71.88 11/29/2014 10:08:16 46.91, -0.03 71.88 0.00 0
10 11/29/2014 10:43:23 -74.65, -51.88 63.54 11/29/2014 10:43:23 -74.65, -51.88 63.54 0.00 0
11 11/29/2014 11:41:18 74.55, 0.78 95.97 11/29/2014 11:41:18 74.55, 0.78 95.97 0.00 0
12 11/29/2014 12:26:50 -79.83,-102.13 69.29 11/29/2014 12:26:50 -79.83,-102.13 69.29 0.00 0
13 11/29/2014 13:19:21 81.27, 25.38 105.53 11/29/2014 13:19:21 81.27, 25.38 105.53 0.00 0
14 11/29/2014 14:03:44 -67.29, -89.61 57.23 11/29/2014 14:03:44 -67.29, -89.61 57.23 0.00 0
15 11/29/2014 14:58:17 78.59, 49.11 112.39 11/29/2014 14:58:17 78.59, 49.11 112.39 0.00 0
16 11/29/2014 15:50:24 -81.02,-169.53 71.65 11/29/2014 15:50:24 -81.02,-169.53 71.65 0.00 0
17 11/29/2014 16:32:13 55.25, 61.93 131.56 11/29/2014 16:32:13 55.25, 61.93 131.56 0.00 0
18 11/29/2014 17:35:14 -76.86, 99.59 81.60 11/29/2014 17:35:14 -76.86, 99.59 81.60 0.00 0
19 11/29/2014 18:26:03 76.45, -94.65 97.97 11/29/2014 18:26:03 76.45, -94.65 97.97 0.00 0
20 11/29/2014 19:23:33 -54.59, 44.14 101.69 11/29/2014
